Time,TemperatureF,DewpointF,PressureIn,WindDirection,WindDirectionDegrees,WindSpeedMPH,WindSpeedGustMPH,Humidity,HourlyPrecipIn,Conditions,Clouds,dailyrainin,SoftwareType,DateUTC
2013-06-07 00:12:00,74.7,62.0,29.88,ENE,75,2.0,10.0,65,0.00,,,0.00,weatherlink.com 1.10,2013-06-07 05:12:00,
2013-06-07 00:27:00,74.4,62.0,29.88,NNE,24,3.0,7.0,66,0.00,,,0.00,weatherlink.com 1.10,2013-06-07 05:27:00,
2013-06-07 00:42:00,73.9,63.0,29.88,NE,56,4.0,7.0,69,0.00,,,0.00,weatherlink.com 1.10,2013-06-07 05:42:00,
2013-06-07 00:57:00,73.4,63.0,29.87,East,91,1.0,3.0,70,0.00,,,0.00,weatherlink.com 1.10,2013-06-07 05:57:00,
2013-06-07 01:12:00,72.8,63.0,29.87,NNE,18,2.0,7.0,72,0.00,,,0.00,weatherlink.com 1.10,2013-06-07 06:12:00,
2013-06-07 01:27:00,72.2,63.0,29.87,North,352,1.0,5.0,73,0.00,,,0.00,weatherlink.com 1.10,2013-06-07 06:27:00,
2013-06-07 01:42:00,71.5,63.0,29.87,ENE,61,2.0,7.0,75,0.00,,,0.00,weatherlink.com 1.10,2013-06-07 06:42:00,
2013-06-07 01:57:00,71.0,63.0,29.87,NW,310,1.0,61.0,75,0.00,,,0.00,weatherlink.com 1.10,2013-06-07 06:57:00,
2013-06-07 02:13:00,70.3,62.0,29.87,NNE,15,0.0,11.0,76,0.00,,,0.00,weatherlink.com 1.10,2013-06-07 07:13:00,
2013-06-07 02:27:00,69.9,62.0,29.87,NNE,18,0.0,19.0,77,0.00,,,0.00,weatherlink.com 1.10,2013-06-07 07:27:00,
2013-06-07 02:42:00,68.9,62.0,29.87,NNE,19,0.0,1.0,79,0.00,,,0.00,weatherlink.com 1.10,2013-06-07 07:42:00,
2013-06-07 02:57:00,68.8,62.0,29.86,North,349,2.0,5.0,80,0.00,,,0.00,weatherlink.com 1.10,2013-06-07 07:57:00,
2013-06-07 03:12:00,69.2,62.0,29.86,NNW,344,3.0,5.0,78,0.00,,,0.00,weatherlink.com 1.10,2013-06-07 08:12:00,
2013-06-07 03:27:00,69.3,62.0,29.86,ENE,68,0.0,10.0,78,0.00,,,0.00,weatherlink.com 1.10,2013-06-07 08:27:00,
2013-06-07 03:42:00,69.2,62.0,29.87,NE,50,1.0,119.0,79,0.00,,,0.00,weatherlink.com 1.10,2013-06-07 08:42:00,
2013-06-07 03:57:00,69.4,63.0,29.87,NE,34,1.0,61.0,79,0.00,,,0.00,weatherlink.com 1.10,2013-06-07 08:57:00,
2013-06-07 04:12:00,69.0,62.0,29.86,NE,47,0.0,2.0,79,0.00,,,0.00,weatherlink.com 1.10,2013-06-07 09:12:00,
2013-06-07 04:27:00,68.5,62.0,29.86,North,356,1.0,5.0,80,0.00,,,0.00,weatherlink.com 1.10,2013-06-07 09:27:00,
2013-06-07 04:42:00,67.7,62.0,29.86,NW,325,0.0,231.0,82,0.00,,,0.00,weatherlink.com 1.10,2013-06-07 09:42:00,
2013-06-07 04:57:00,66.7,61.0,29.86,NW,324,0.0,0.0,83,0.00,,,0.00,weatherlink.com 1.10,2013-06-07 09:57:00,
2013-06-07 05:12:00,66.5,62.0,29.86,North,8,0.0,3.0,84,0.00,,,0.00,weatherlink.com 1.10,2013-06-07 10:12:00,
2013-06-07 05:27:00,66.0,61.0,29.86,NNE,12,0.0,1.0,85,0.00,,,0.00,weatherlink.com 1.10,2013-06-07 10:27:00,
2013-06-07 05:42:00,65.4,62.0,29.86,North,11,0.0,1.0,87,0.00,,,0.00,weatherlink.com 1.10,2013-06-07 10:42:00,
2013-06-07 05:57:00,64.8,61.0,29.86,North,11,0.0,0.0,87,0.00,,,0.00,weatherlink.com 1.10,2013-06-07 10:57:00,
2013-06-07 06:12:00,64.2,61.0,29.86,North,11,0.0,0.0,88,0.00,,,0.00,weatherlink.com 1.10,2013-06-07 11:12:00,
2013-06-07 06:27:00,63.9,61.0,29.86,ENE,58,0.0,2.0,90,0.00,,,0.00,weatherlink.com 1.10,2013-06-07 11:27:00,
2013-06-07 06:42:00,64.2,61.0,29.86,SSW,208,1.0,1.0,90,0.00,,,0.00,weatherlink.com 1.10,2013-06-07 11:42:00,
2013-06-07 06:57:00,65.3,62.0,29.86,NNE,32,2.0,4.0,89,0.00,,,0.00,weatherlink.com 1.10,2013-06-07 11:57:00,
2013-06-07 07:12:00,65.9,62.0,29.87,SW,219,0.0,2.0,88,0.00,,,0.00,weatherlink.com 1.10,2013-06-07 12:12:00,
2013-06-07 07:27:00,67.2,63.0,29.88,North,359,2.0,5.0,86,0.00,,,0.00,weatherlink.com 1.10,2013-06-07 12:27:00,
2013-06-07 07:42:00,67.6,63.0,29.88,East,79,3.0,5.0,86,0.00,,,0.00,weatherlink.com 1.10,2013-06-07 12:42:00,
2013-06-07 07:57:00,68.3,63.0,29.89,East,83,2.0,10.0,84,0.00,,,0.00,weatherlink.com 1.10,2013-06-07 12:57:00,
2013-06-07 08:13:00,68.6,63.0,29.90,NE,44,2.0,9.0,83,0.00,,,0.00,weatherlink.com 1.10,2013-06-07 13:13:00,
2013-06-07 08:28:00,69.0,63.0,29.90,North,4,4.0,8.0,82,0.00,,,0.00,weatherlink.com 1.10,2013-06-07 13:28:00,
2013-06-07 08:43:00,69.3,63.0,29.91,NW,308,4.0,9.0,81,0.00,,,0.00,weatherlink.com 1.10,2013-06-07 13:43:00,
2013-06-07 08:58:00,69.6,63.0,29.92,NNE,32,1.0,98.0,80,0.00,,,0.00,weatherlink.com 1.10,2013-06-07 13:58:00,
2013-06-07 09:13:00,69.6,63.0,29.93,NE,42,4.0,7.0,79,0.00,,,0.00,weatherlink.com 1.10,2013-06-07 14:13:00,
2013-06-07 09:28:00,69.7,63.0,29.94,NNW,340,4.0,7.0,79,0.00,,,0.00,weatherlink.com 1.10,2013-06-07 14:28:00,
2013-06-07 09:43:00,69.6,63.0,29.96,NNE,16,3.0,13.0,79,0.00,,,0.00,weatherlink.com 1.10,2013-06-07 14:43:00,
2013-06-07 09:58:00,69.9,63.0,29.96,NW,311,6.0,9.0,78,0.00,,,0.00,weatherlink.com 1.10,2013-06-07 14:58:00,
2013-06-07 10:13:00,69.9,62.0,29.97,NNW,333,7.0,14.0,76,0.00,,,0.00,weatherlink.com 1.10,2013-06-07 15:13:00,
2013-06-07 10:28:00,70.1,62.0,29.95,WNW,300,8.0,11.0,75,0.00,,,0.00,weatherlink.com 1.10,2013-06-07 15:28:00,
2013-06-07 10:43:00,69.9,62.0,29.93,NW,321,2.0,5.0,76,0.00,,,0.00,weatherlink.com 1.10,2013-06-07 15:43:00,
2013-06-07 10:58:00,70.3,62.0,29.92,NNW,340,1.0,9.0,75,0.00,,,0.00,weatherlink.com 1.10,2013-06-07 15:58:00,
2013-06-07 11:13:00,70.5,62.0,29.91,NW,316,2.0,7.0,74,0.00,,,0.00,weatherlink.com 1.10,2013-06-07 16:13:00,
2013-06-07 11:28:00,70.7,62.0,29.90,NW,326,5.0,6.0,74,0.00,,,0.00,weatherlink.com 1.10,2013-06-07 16:28:00,
2013-06-07 11:43:00,71.1,62.0,29.91,NE,48,1.0,5.0,74,0.00,,,0.00,weatherlink.com 1.10,2013-06-07 16:43:00,
2013-06-07 11:58:00,71.6,63.0,29.91,East,83,6.0,6.0,73,0.00,,,0.00,weatherlink.com 1.10,2013-06-07 16:58:00,
2013-06-07 12:13:00,72.0,63.0,29.91,North,11,2.0,6.0,73,0.00,,,0.00,weatherlink.com 1.10,2013-06-07 17:13:00,
2013-06-07 12:28:00,72.9,63.0,29.92,East,99,0.0,4.0,71,0.00,,,0.00,weatherlink.com 1.10,2013-06-07 17:28:00,
2013-06-07 12:43:00,72.5,63.0,29.93,NNE,26,0.0,3.0,71,0.00,,,0.00,weatherlink.com 1.10,2013-06-07 17:43:00,
2013-06-07 12:58:00,72.9,63.0,29.94,NW,304,2.0,3.0,70,0.00,,,0.00,weatherlink.com 1.10,2013-06-07 17:58:00,
2013-06-07 13:13:00,73.1,63.0,29.95,NW,308,1.0,5.0,70,0.00,,,0.00,weatherlink.com 1.10,2013-06-07 18:13:00,
2013-06-07 13:28:00,73.4,63.0,29.95,WSW,252,1.0,4.0,70,0.00,,,0.00,weatherlink.com 1.10,2013-06-07 18:28:00,
2013-06-07 13:43:00,73.3,63.0,29.95,WSW,244,1.0,5.0,70,0.00,,,0.00,weatherlink.com 1.10,2013-06-07 18:43:00,
2013-06-07 13:58:00,73.1,62.0,29.93,WSW,252,0.0,7.0,68,0.00,,,0.00,weatherlink.com 1.10,2013-06-07 18:58:00,
2013-06-07 14:13:00,73.0,63.0,29.93,WSW,240,3.0,7.0,70,0.00,,,0.00,weatherlink.com 1.10,2013-06-07 19:13:00,
2013-06-07 14:28:00,73.5,64.0,29.91,South,174,1.0,4.0,71,0.00,,,0.00,weatherlink.com 1.10,2013-06-07 19:28:00,
2013-06-07 14:58:00,73.5,64.0,29.90,SE,143,2.0,3.0,71,0.00,,,0.00,weatherlink.com 1.10,2013-06-07 19:58:00,
2013-06-07 15:13:00,73.5,64.0,29.89,SSW,195,4.0,6.0,72,0.00,,,0.00,weatherlink.com 1.10,2013-06-07 20:13:00,
2013-06-07 15:28:00,73.4,63.0,29.89,SSW,207,1.0,3.0,71,0.00,,,0.00,weatherlink.com 1.10,2013-06-07 20:28:00,
2013-06-07 15:43:00,73.9,64.0,29.89,SW,233,0.0,3.0,72,0.00,,,0.00,weatherlink.com 1.10,2013-06-07 20:43:00,
2013-06-07 15:58:00,75.6,64.0,29.88,NNE,33,1.0,3.0,68,0.00,,,0.00,weatherlink.com 1.10,2013-06-07 20:58:00,
2013-06-07 16:13:00,76.6,64.0,29.87,SW,235,0.0,3.0,66,0.00,,,0.00,weatherlink.com 1.10,2013-06-07 21:13:00,
2013-06-07 16:43:00,77.1,63.0,29.85,North,9,1.0,3.0,62,0.00,,,0.00,weatherlink.com 1.10,2013-06-07 21:43:00,
2013-06-07 16:58:00,75.5,61.0,29.84,North,359,2.0,6.0,62,0.00,,,0.00,weatherlink.com 1.10,2013-06-07 21:58:00,
2013-06-07 17:28:00,76.0,61.0,29.84,NW,316,2.0,5.0,60,0.00,,,0.00,weatherlink.com 1.10,2013-06-07 22:28:00,
2013-06-07 17:43:00,76.5,61.0,29.84,ENE,67,2.0,5.0,60,0.00,,,0.00,weatherlink.com 1.10,2013-06-07 22:43:00,
2013-06-07 18:13:00,76.6,61.0,29.83,NW,315,4.0,4.0,59,0.00,,,0.00,weatherlink.com 1.10,2013-06-07 23:13:00,
2013-06-07 18:28:00,76.6,61.0,29.82,NE,44,2.0,5.0,58,0.00,,,0.00,weatherlink.com 1.10,2013-06-07 23:28:00,
2013-06-07 18:43:00,77.0,61.0,29.82,ENE,65,5.0,6.0,59,0.00,,,0.00,weatherlink.com 1.10,2013-06-07 23:43:00,
2013-06-07 19:13:00,78.2,60.0,29.82,North,8,3.0,6.0,54,0.00,,,0.00,weatherlink.com 1.10,2013-06-08 00:13:00,
2013-06-07 19:28:00,78.7,57.0,29.82,NE,45,3.0,7.0,48,0.00,,,0.00,weatherlink.com 1.10,2013-06-08 00:28:00,
2013-06-07 19:43:00,77.9,59.0,29.83,East,89,0.0,3.0,52,0.00,,,0.00,weatherlink.com 1.10,2013-06-08 00:43:00,
2013-06-07 20:13:00,75.1,60.0,29.83,South,170,0.0,0.0,59,0.00,,,0.00,weatherlink.com 1.10,2013-06-08 01:13:00,
2013-06-07 20:28:00,72.9,59.0,29.83,South,171,0.0,0.0,63,0.00,,,0.00,weatherlink.com 1.10,2013-06-08 01:28:00,
2013-06-07 20:43:00,69.8,60.0,29.83,South,175,0.0,1.0,71,0.00,,,0.00,weatherlink.com 1.10,2013-06-08 01:43:00,
2013-06-07 20:58:00,67.6,59.0,29.83,West,271,0.0,1.0,75,0.00,,,0.00,weatherlink.com 1.10,2013-06-08 01:58:00,
2013-06-07 21:13:00,66.3,59.0,29.84,West,271,0.0,0.0,77,0.00,,,0.00,weatherlink.com 1.10,2013-06-08 02:13:00,
2013-06-07 21:28:00,64.8,59.0,29.84,West,271,0.0,0.0,80,0.00,,,0.00,weatherlink.com 1.10,2013-06-08 02:28:00,
2013-06-07 21:43:00,63.7,58.0,29.85,West,271,0.0,0.0,81,0.00,,,0.00,weatherlink.com 1.10,2013-06-08 02:43:00,
2013-06-07 21:58:00,62.6,58.0,29.85,West,271,0.0,0.0,85,0.00,,,0.00,weatherlink.com 1.10,2013-06-08 02:58:00,
2013-06-07 22:13:00,61.9,57.0,29.86,West,271,0.0,0.0,85,0.00,,,0.00,weatherlink.com 1.10,2013-06-08 03:13:00,
2013-06-07 22:43:00,60.7,57.0,29.87,WSW,240,0.0,0.0,88,0.00,,,0.00,weatherlink.com 1.10,2013-06-08 03:43:00,
2013-06-07 23:13:00,59.6,56.0,29.88,WSW,240,0.0,0.0,89,0.00,,,0.00,weatherlink.com 1.10,2013-06-08 04:13:00,
2013-06-07 23:28:00,59.2,56.0,29.88,WSW,240,0.0,0.0,89,0.00,,,0.00,weatherlink.com 1.10,2013-06-08 04:28:00,
2013-06-07 23:43:00,58.9,56.0,29.88,WSW,240,0.0,0.0,90,0.00,,,0.00,weatherlink.com 1.10,2013-06-08 04:43:00,
2013-06-07 23:58:00,58.4,56.0,29.89,WSW,240,0.0,0.0,91,0.00,,,0.00,weatherlink.com 1.10,2013-06-08 04:58:00,